Stations météo

réclame
Mon MeteoGroup
Altnaharra, Grande-Bretagne (3044): Température de l'air & dewpoint: 16.04.2018 23:00:00 - 22.04.2018 23:00:00 (BST)Altnaharra, Grande-Bretagne (3044): Température de l'air -20cm & Température de l'air -100cm: 16.04.2018 23:00:00 - 22.04.2018 23:00:00 (BST)Altnaharra, Grande-Bretagne (3044): Vitesse du vent & gusts: 16.04.2018 23:00:00 - 22.04.2018 23:00:00 (BST)Altnaharra, Grande-Bretagne (3044): Direction du vent: 16.04.2018 23:00:00 - 22.04.2018 23:00:00 (BST)Altnaharra, Grande-Bretagne (3044): reduced air pressure: 16.04.2018 23:00:00 - 22.04.2018 23:00:00 (BST)Altnaharra, Grande-Bretagne (3044): visibility: 16.04.2018 23:00:00 - 22.04.2018 23:00:00 (BST)Altnaharra, Grande-Bretagne (3044): Ensoleillement: 16.04.2018 23:00:00 - 22.04.2018 23:00:00 (BST)Altnaharra, Grande-Bretagne (3044): Quantités de précipitations: 16.04.2018 23:00:00 - 22.04.2018 23:00:00 (BST)
Date & Time tt [°C] td [°C] tt -20cm [°C] tt -100cm [°C] ff [km/h] ff [knt] fx [km/h] fx [knt] dd ppp [hPa] vv [km] sd [min] rr [mm]
22.04.2018 23:00:00 - - - - - - - - - - - - -
22.04.2018 22:00:00 7,8 5,7 - - 8 4 - - SSW 998,1 21 0 0,2
22.04.2018 21:00:00 7,5 4,7 - - 9 5 - - S 998,2 50 0 0,0
22.04.2018 20:00:00 8,6 4,7 - - 11 6 - - S 998,3 50 18 0,0
22.04.2018 19:00:00 9,8 4,4 - - 13 7 - - S 998,4 50 6 0,0
22.04.2018 18:00:00 9,3 3,7 - - 9 5 - - SSW 998,6 50 6 0,0
22.04.2018 17:00:00 9,4 6,7 - - 13 7 - - SSW 999,1 50 6 0,0
22.04.2018 16:00:00 8,3 5,7 - - 16 9 - - SW 999,2 23 0 0,4
22.04.2018 15:00:00 9,3 7,6 - - 9 5 - - SSW 998,9 40 0 0,6
22.04.2018 14:00:00 11,0 8,4 - - 15 8 - - S 998,8 50 6 0,2
22.04.2018 13:00:00 10,0 7,0 - - 15 8 - - S 999,2 35 0 0,0
22.04.2018 12:00:00 9,7 6,5 - - 9 5 - - S 999,6 40 0 0,6
22.04.2018 11:00:00 9,5 6,2 - - 8 4 - - SSW 1000,2 30 0 0,2
22.04.2018 10:00:00 10,5 4,2 9,0 6,7 5 3 - - SW 1000,4 45 0 0,0
22.04.2018 09:00:00 10,1 4,6 - - 5 3 - - SW 1000,8 45 0 0,0
22.04.2018 08:00:00 10,2 4,2 - - 9 5 - - SW 1001,1 50 0 0,0
22.04.2018 07:00:00 9,2 4,7 - - 11 6 - - WSW 1001,0 45 0 0,0
22.04.2018 06:00:00 8,2 5,4 - - 8 4 - - WSW 1001,8 50 0 0,0
22.04.2018 05:00:00 7,4 5,0 - - 5 3 - - W 1002,7 50 0 0,0
22.04.2018 04:00:00 7,5 5,2 - - 8 4 - - NW 1003,8 50 0 0,0
22.04.2018 03:00:00 6,8 4,8 - - 5 3 - - NW 1004,7 50 0 0,0
22.04.2018 02:00:00 6,9 5,2 - - 13 7 - - W 1005,9 50 0 0,0
22.04.2018 01:00:00 6,8 4,5 - - 8 4 - - W 1007,3 50 - 0,0
22.04.2018 00:00:00 6,7 4,3 - - 8 4 - - W 1008,5 50 0 0,0
21.04.2018 23:00:00 7,7 4,5 - - 8 4 - - W 1009,4 50 0 0,0
21.04.2018 22:00:00 9,2 4,7 - - 11 6 - - W 1010,0 50 0 0,0
21.04.2018 21:00:00 10,8 5,1 - - 11 6 - - W 1010,6 50 0 0,0
21.04.2018 20:00:00 13,3 5,1 - - 11 6 - - SE 1011,0 50 12 0,0
21.04.2018 19:00:00 15,0 5,0 - - 9 5 - - SE 1011,8 50 24 0,0
21.04.2018 18:00:00 15,2 4,1 - - 8 4 - - SSW 1012,3 45 0 0,0
21.04.2018 17:00:00 15,2 4,5 - - 16 9 - - S 1013,1 50 12 0,0
21.04.2018 16:00:00 16,4 3,5 - - 24 13 - - SSE 1013,7 35 12 0,0
21.04.2018 15:00:00 15,0 3,9 - - 18 10 - - SSE 1014,8 50 12 0,0
21.04.2018 14:00:00 14,4 4,3 - - 15 8 - - SSE 1015,8 30 18 0,0
21.04.2018 13:00:00 14,2 4,0 - - 9 5 - - SSE 1016,6 45 54 0,0
21.04.2018 12:00:00 13,6 4,1 - - 15 8 - - SSE 1017,6 35 60 0,0
21.04.2018 11:00:00 11,9 3,4 - - 11 6 - - S 1018,4 50 60 0,0
21.04.2018 10:00:00 10,4 3,2 8,7 6,7 13 7 - - S 1019,0 40 60 0,0
21.04.2018 09:00:00 9,8 3,7 - - 15 8 - - S 1019,4 50 54 0,0
21.04.2018 08:00:00 8,3 4,9 - - 5 3 - - ENE 1019,8 40 60 0,0
21.04.2018 07:00:00 4,3 3,2 - - 2 1 - - ESE 1020,3 40 12 0,0
21.04.2018 06:00:00 4,0 2,7 - - 2 1 - - SSW 1020,2 40 0 0,0
21.04.2018 05:00:00 5,2 3,0 - - 13 7 - - S 1020,3 45 0 0,0
21.04.2018 04:00:00 5,0 2,2 - - 9 5 - - SSE 1020,7 40 0 0,0
21.04.2018 03:00:00 6,7 4,4 - - 13 7 - - SSW 1020,9 40 0 0,0
21.04.2018 02:00:00 7,2 4,3 - - 8 4 - - S 1021,3 45 0 0,0
21.04.2018 01:00:00 8,1 5,2 - - 11 6 - - S 1021,3 29 - 0,0
21.04.2018 00:00:00 7,9 5,1 - - 8 4 - - SW 1021,2 35 0 0,0
20.04.2018 23:00:00 8,4 5,3 - - 9 5 - - SW 1021,2 45 0 0,0
20.04.2018 22:00:00 8,6 5,3 - - 8 4 - - SSW 1021,0 40 0 0,0
20.04.2018 21:00:00 9,2 4,7 - - 11 6 - - SW 1020,8 35 0 0,0
20.04.2018 20:00:00 9,7 4,3 - - 16 9 - - SW 1020,1 35 6 0,0
20.04.2018 19:00:00 10,6 4,0 - - 22 12 - - WSW 1019,8 40 30 0,0
20.04.2018 18:00:00 11,3 4,7 - - 26 14 46 25 SW 1019,2 50 18 0,0
20.04.2018 17:00:00 12,3 4,9 - - 26 14 - - SW 1019,2 45 36 0,0
20.04.2018 16:00:00 11,7 7,8 - - 18 10 - - SW 1019,0 13 24 0,0
20.04.2018 15:00:00 11,4 7,8 - - 16 9 - - SSW 1018,9 11 18 0,0
20.04.2018 14:00:00 12,5 5,6 - - 26 14 48 26 SW 1018,7 27 36 0,0
20.04.2018 13:00:00 14,2 6,1 - - 22 12 52 28 SW 1018,4 40 48 0,0
20.04.2018 12:00:00 12,3 6,8 - - 22 12 - - SW 1018,7 28 6 0,0
20.04.2018 11:00:00 12,0 7,5 - - 16 9 - - SSW 1018,7 50 24 0,0
20.04.2018 10:00:00 11,0 7,1 8,7 6,4 13 7 - - SSW 1018,7 8 30 0,0
20.04.2018 09:00:00 11,9 5,0 - - 16 9 - - S 1018,2 45 60 0,0
20.04.2018 08:00:00 10,1 5,5 - - 9 5 - - S 1018,2 27 60 0,0
20.04.2018 07:00:00 7,0 4,7 - - 5 3 - - SW 1018,8 35 12 0,0
20.04.2018 06:00:00 6,9 3,7 - - 8 4 - - SSW 1019,3 45 0 0,0
20.04.2018 05:00:00 7,5 4,2 - - 5 3 - - WSW 1019,4 45 0 0,0
20.04.2018 04:00:00 7,5 3,9 - - 8 4 - - SSW 1019,6 50 0 0,0
20.04.2018 03:00:00 7,8 3,8 - - 11 6 - - SSW 1020,0 45 0 0,0
20.04.2018 02:00:00 7,9 4,2 - - 5 3 - - SW 1020,5 50 0 0,0
20.04.2018 01:00:00 9,1 4,9 - - 13 7 - - S 1020,7 50 - 0,0
20.04.2018 00:00:00 8,0 4,3 - - 18 10 - - S 1021,0 50 0 0,0
19.04.2018 23:00:00 8,5 4,2 - - 9 5 - - SW 1021,2 50 0 0,0
19.04.2018 22:00:00 9,7 7,0 - - 8 4 - - SSW 1021,2 45 0 0,0
19.04.2018 21:00:00 10,7 7,5 - - 11 6 - - S 1020,7 50 18 0,0
19.04.2018 20:00:00 12,9 7,4 - - 5 3 - - SSW 1020,4 50 54 0,0
19.04.2018 19:00:00 13,9 7,9 - - 13 7 - - WSW 1020,2 45 54 0,0
19.04.2018 18:00:00 14,7 8,4 - - 11 6 - - SSW 1020,1 45 6 0,0
19.04.2018 17:00:00 14,6 8,6 - - 21 11 - - WSW 1019,9 50 30 0,0
19.04.2018 16:00:00 16,2 8,9 - - 13 7 - - S 1019,5 35 24 0,0
19.04.2018 15:00:00 15,3 8,4 - - 11 6 - - S 1019,6 40 0 0,0
19.04.2018 14:00:00 14,8 8,9 - - 15 8 - - SW 1019,5 50 12 0,0
19.04.2018 13:00:00 15,0 8,8 - - 13 7 - - SW 1019,1 35 6 0,0
19.04.2018 12:00:00 16,1 8,4 - - 22 12 - - SSE 1018,6 45 48 0,0
19.04.2018 11:00:00 15,4 9,2 - - 13 7 - - S 1018,4 40 6 0,0
19.04.2018 10:00:00 14,3 9,6 8,7 6,2 8 4 - - W 1017,9 45 6 0,0
19.04.2018 09:00:00 13,8 9,6 - - 4 2 - - NW 1017,6 50 0 -
19.04.2018 08:00:00 13,1 9,5 - - 8 4 - - W 1016,9 50 0 -
19.04.2018 07:00:00 13,6 8,9 - - 9 5 - - S 1016,2 45 0 -
19.04.2018 06:00:00 13,8 8,8 - - 13 7 - - S 1015,7 45 0 -
19.04.2018 05:00:00 14,5 8,6 - - 13 7 - - S 1015,3 50 0 -
19.04.2018 04:00:00 15,0 8,5 - - 13 7 - - S 1015,0 50 0 -
19.04.2018 03:00:00 15,2 8,7 - - 21 11 52 28 S 1014,7 50 0 -
19.04.2018 02:00:00 15,5 8,9 - - 35 19 63 34 SE 1014,0 50 0 0,0
19.04.2018 01:00:00 15,5 9,0 - - 39 21 65 35 SE 1014,0 50 - 0,0
19.04.2018 00:00:00 15,7 8,8 - - 42 23 68 37 SE 1014,2 45 0 0,0
18.04.2018 23:00:00 15,7 8,4 - - 41 22 63 34 SE 1014,6 50 0 0,0
18.04.2018 22:00:00 16,2 8,3 - - 39 21 65 35 SE 1014,9 50 0 0,0
18.04.2018 21:00:00 15,6 8,5 - - 35 19 59 32 SE 1015,1 45 0 0,0
18.04.2018 20:00:00 15,8 8,6 - - 37 20 54 29 SE 1015,4 50 0 0,0
18.04.2018 19:00:00 16,2 7,5 - - 21 11 - - SE 1016,1 50 0 0,0
18.04.2018 18:00:00 16,6 7,0 - - 22 12 - - SE 1016,6 50 0 0,0
18.04.2018 17:00:00 17,6 6,7 - - 26 14 - - SSE 1016,6 50 0 0,0
18.04.2018 16:00:00 17,3 6,5 - - 28 15 - - SSE 1016,7 45 54 0,0
18.04.2018 15:00:00 17,3 6,6 - - 22 12 - - SSE 1017,0 40 36 0,0
18.04.2018 14:00:00 16,9 7,2 - - 28 15 - - SSE 1017,3 40 30 0,0
18.04.2018 13:00:00 16,7 7,0 - - 22 12 - - SSE 1017,1 30 0 0,0
18.04.2018 12:00:00 16,8 6,8 - - 16 9 - - SE 1016,5 20 60 0,0
18.04.2018 11:00:00 15,1 7,0 - - 21 11 - - SE 1016,4 22 60 0,0
18.04.2018 10:00:00 14,5 5,9 8,0 6,0 21 11 - - SE 1015,7 23 60 0,0
18.04.2018 09:00:00 13,2 6,0 - - 15 8 - - SE 1014,7 20 54 0,0
18.04.2018 08:00:00 12,0 6,3 - - 9 5 - - SW 1014,3 25 54 0,0
18.04.2018 07:00:00 11,0 8,0 - - 13 7 - - NNE 1013,4 30 6 0,0
18.04.2018 06:00:00 7,4 5,0 - - 5 3 - - NNE 1013,3 35 0 0,0
18.04.2018 05:00:00 7,5 5,1 - - 13 7 - - NNW 1012,6 30 0 0,0
18.04.2018 04:00:00 10,4 5,2 - - 9 5 - - SW 1012,3 22 0 0,0
18.04.2018 03:00:00 11,3 6,0 - - 21 11 - - SE 1011,6 29 0 0,0
18.04.2018 02:00:00 11,3 6,0 - - 13 7 - - SE 1011,1 40 0 0,0
18.04.2018 01:00:00 11,2 5,7 - - 15 8 - - SSE 1010,1 35 - 0,0
18.04.2018 00:00:00 11,3 6,5 - - 16 9 - - SSE 1009,3 30 0 0,0
17.04.2018 23:00:00 11,5 6,8 - - 15 8 - - S 1008,0 27 0 0,0
17.04.2018 22:00:00 12,1 6,3 - - 21 11 - - SSE 1007,1 45 0 0,0
17.04.2018 21:00:00 11,9 6,4 - - 13 7 - - SSE 1006,1 50 0 0,0
17.04.2018 20:00:00 12,3 6,1 - - 13 7 - - S 1005,0 50 30 0,0
17.04.2018 19:00:00 13,7 5,7 - - 18 10 - - S 1004,1 50 48 0,0
17.04.2018 18:00:00 13,5 8,9 - - 11 6 - - S 1003,1 30 36 0,6
17.04.2018 17:00:00 15,0 5,6 - - 24 13 52 28 S 1002,2 11 42 0,0
17.04.2018 16:00:00 16,8 5,8 - - 35 19 50 27 SSE 1001,4 22 48 0,0
17.04.2018 15:00:00 16,6 5,4 - - 29 16 55 30 SSE 1000,9 35 54 0,0
17.04.2018 14:00:00 17,2 5,1 - - 37 20 55 30 SSE 1000,2 35 60 0,0
17.04.2018 13:00:00 16,2 6,1 - - 18 10 - - S 999,6 45 48 0,0
17.04.2018 12:00:00 15,7 7,4 - - 28 15 54 29 SSE 999,5 21 60 0,0
17.04.2018 11:00:00 15,0 7,5 - - 29 16 55 30 SSE 999,3 45 48 0,0
17.04.2018 10:00:00 13,1 6,3 7,7 5,9 37 20 68 37 SE 998,6 50 36 0,0
17.04.2018 09:00:00 13,0 5,9 - - 44 24 80 43 SE 998,0 50 42 0,0
17.04.2018 08:00:00 12,2 5,6 - - 44 24 80 43 SE 997,2 50 6 0,0
17.04.2018 07:00:00 11,2 5,3 - - 44 24 85 46 ESE 997,3 50 0 0,0
17.04.2018 06:00:00 10,9 5,2 - - 42 23 93 50 ESE 997,8 50 0 0,0
17.04.2018 05:00:00 10,5 5,6 - - 59 32 89 48 SE 998,1 45 0 0,0
17.04.2018 04:00:00 10,0 5,1 - - 31 17 61 33 ESE 999,9 50 0 0,8
17.04.2018 03:00:00 9,6 5,3 - - 34 18 59 32 SE 1000,9 35 0 0,2
17.04.2018 02:00:00 10,1 4,5 - - 31 17 61 33 ESE 1001,7 29 0 0,0
17.04.2018 01:00:00 10,9 4,1 - - 37 20 59 32 SE 1001,4 50 - 0,0
17.04.2018 00:00:00 11,1 4,1 - - 31 17 50 27 ESE 1002,3 50 0 0,0
16.04.2018 23:00:00 9,8 4,6 - - 29 16 - - ESE 1002,4 22 0 0,0

tt = Température de l'air
td = dewpoint
tt -20cm = Température de l'air -20cm
tt -100cm = Température de l'air -100cm
ff = Vitesse du vent
fx = gusts
dd = Direction du vent
ppp = reduced air pressure
vv = visibility
sd = Ensoleillement
rr = Quantités de précipitations

stations d'obs. à proximité